Regional Weather Roundup
Issued by NWS

Home | Current Version | Previous Version | Graphics & Text | Print | Product List | Glossary On
Versions: 1 2 3 4 5 6 7 8 9 10 11 12 13 14 15 16 17 18 19 20 21 22 23 24 25 26 27 28 29 30 31 32 33 34 35 36 37 38 39 40 41 42 43 44 45 46 47 48 49 50
000
ASUS43 KLOT 291403
RWRIL

ILLINOIS REGIONAL WEATHER ROUNDUP
NATIONAL WEATHER SERVICE CHICAGO/ROMEOVILLE IL
900 AM CDT WED MAR 29 2017

NOTE: "FAIR" INDICATES FEW OR NO CLOUDS BELOW 12,000 FEET WITH NO
SIGNIFICANT WEATHER AND/OR OBSTRUCTIONS TO VISIBILITY.

* THESE STATIONS ARE NOT UNDER NWS QUALITY CONTROL. THEY ALSO MAY NOT
  REPORT WEATHER SUCH AS PRECIPITATION OR FOG.

ILZ001-002-007-009-015-016-024-291500-
NORTHWEST ILLINOIS

CITY           SKY/WX    TMP DP  RH WIND       PRES   REMARKS
MOLINE         CLOUDY    43  39  86 E10       30.21R FOG
STERLING*      CLOUDY    40  38  93 E16       30.20R
SAVANNA*       CLOUDY    39  37  91 E10       30.22R WCI  32
$$

ILZ003-004-008-010-011-017-018-291500-
NORTH CENTRAL ILLINOIS

CITY           SKY/WX    TMP DP  RH WIND       PRES   REMARKS
ROCKFORD       CLOUDY    40  35  83 E8        30.25R
FREEPORT*      CLOUDY    36  36  99 E8        30.25R FOG     WCI  30
ROCHELLE*      CLOUDY    40  37  88 E9        30.23R
DE KALB*       PTSUNNY   39  37  92 E9        30.23R WCI  33
PERU*          CLOUDY    40  37  92 E14       30.20R FOG
$$

ILZ005-006-012>014-019>023-291500-
NORTHEAST ILLINOIS

CITY           SKY/WX    TMP DP  RH WIND       PRES   REMARKS
CHICAGO-OHARE  CLOUDY    40  35  83 NE10      30.23F
CHICAGO-MIDWAY CLOUDY    42  36  79 NE10G17   30.24F
AURORA         CLOUDY    41  37  86 NE12      30.22F
LANSING*       PTSUNNY   39  39 100 NE7       30.24F FOG     WCI  34
JOLIET*        MOSUNNY   43  38  85 E10       30.21F
WAUKEGAN       MOSUNNY   37  37 100 NE7       30.25F FOG     WCI  32
DUPAGE AIRPORT CLOUDY    40  38  93 E8        30.22F
WHEELING       CLOUDY    37  37 100 NE9       30.25F WCI  30
MORRIS*        CLOUDY    42  38  86 E8        30.21S
NORTHERLY ISL    N/A     38  37  97 N7          N/A  WCI  33
$$

LMZ740>746-291500-
SOUTHERN LAKE MICHIGAN

STATION/POSITION SKY/WX   TEMP    WIND        PRES    VSBY  WAVE
                          AIR SEA DIR/SP/G                  HT/PER
                          (F)     (DEG/KT/KT) (MB)    (MI)  (FT/S)
HARRISON CRIB              37      30/  9/ 10   N/A
BURNHAM HARBOR             39      20/  7/  9   N/A
CALUMET HARBOR             36      40/  6/  8 1023.4F
BURNS HARBOR               39      60/  8/  9 1024.4F
MICHIGAN CITY              40      90/  6/  8   N/A
$$

ILZ025>027-034>036-040-047-049-050-058-095>099-291500-
WEST-CENTRAL ILLINOIS

CITY           SKY/WX    TMP DP  RH WIND       PRES   REMARKS
QUINCY         TSTM      43  41  93 N9        30.14R FOG
GALESBURG*     CLOUDY    44  43  97 E7        30.16R FOG
MACOMB*        CLOUDY    44  44  98 NE9       30.16R FOG
JACKSONVILLE*  CLOUDY    48  44  88 E18       30.10R
PITTSFIELD*    LGT RAIN  46  43  89 NE6       30.10R
$$

ILZ028>032-037-038-041>044-048-051>054-059>061-291500-
CENTRAL ILLINOIS

CITY           SKY/WX    TMP DP  RH WIND       PRES   REMARKS
PONTIAC        PTSUNNY   45  44  95 E16       30.21R
BLOOMINGTON    CLOUDY    46  44  93 E21G28    30.14F
DECATUR        CLOUDY    50  45  83 E22G28    30.11R
PEORIA         CLOUDY    46  43  89 E12       30.15R
LACON*         CLOUDY    42  40  95 E14G22    30.16F FOG
LINCOLN*       CLOUDY    49  46  92 E16       30.13R
SPRINGFIELD    CLOUDY    50  45  83 E17G23    30.08F
TAYLORVILLE    NOT AVBL
$$

ILZ033-039-045-046-055>057-062-063-291500-
EAST-CENTRAL ILLINOIS

CITY           SKY/WX    TMP DP  RH WIND       PRES   REMARKS
CHAMPAIGN      CLOUDY    49  43  80 E22       30.14F
RANTOUL*       CLOUDY    49  45  86 E15       30.17R
MATTOON        LGT RAIN  51  48  89 E14       30.10S
PARIS*         CLOUDY    48  46  90 NE12      30.15S
$$

ILZ079-100>102-291500-
SOUTHWEST ILLINOIS

CITY           SKY/WX    TMP DP  RH WIND       PRES   REMARKS
ALTON          CLOUDY    48  45  87 E14       30.06S
BELLEVILLE     CLOUDY    51  50  99 NE10      30.05R
CAHOKIA*       CLOUDY    51  45  79 E10       30.05R
SPARTA*        CLOUDY    53  49  86 E15       30.04S
$$

ILZ064>066-069>071-074>076-080>082-084>086-088>090-092>094-291500-
SOUTH-CENTRAL ILLINOIS

CITY           SKY/WX    TMP DP  RH WIND       PRES   REMARKS
CARBONDALE     CLOUDY    55  51  86 E12G22    30.02F
CAIRO*         PTSUNNY   56  53  88 E8        30.02R
EFFINGHAM*     CLOUDY    52  48  88 NE12G18   30.11S
MARION         SUNNY     57  55  94 E12       30.02F
MT. VERNON     PTSUNNY   54  49  83 E17       30.04F
CENTRALIA*     CLOUDY    54  49  82 E14G21    30.03F
SALEM*         CLOUDY    54  47  78 E12G18    30.05F
$$

ILZ067-068-072-073-078-083-087-091-291500-
SOUTHEAST ILLINOIS

CITY           SKY/WX    TMP DP  RH WIND       PRES   REMARKS
LAWRENCEVILLE  CLOUDY    53  49  86 E15       30.10F
FLORA*         SUNNY     55  49  80 E12       30.09S
FAIRFIELD*     SUNNY     54  49  84 E13       30.06S
HARRISBURG*    CLOUDY    55  51  86 E14       30.05S FOG
ROBINSON*      CLOUDY    52  47  84 E16       30.12F
CARMI*         CLOUDY    55  51  87 E13       30.06F FOG
$$

ABBREVIATIONS USED IN REMARKS
   TC - TEMPERATURE IN CELSIUS
  WCI - WIND CHILL INDEX
   HX - HEAT INDEX
  VSB - VISIBILITY
$$





USA.gov is the U.S. government's official web portal to all federal, state and local government web resources and services.